Weather History for Centerville, IA

Change the Weather History Date:

Thursday, September 5, 2013

  Actual Average Record
Temperature  
Mean Temperature 73 °F -  
Max Temperature 87 °F 79 °F 98 °F (1960)
Min Temperature 59 °F 57 °F 39 °F (1962)
Cooling Degree Days 8    
Growing Degree Days 23 (Base 50)    
Moisture  
Dew Point 62 °F    
Average Humidity 68    
Maximum Humidity 100    
Minimum Humidity 40    
Precipitation  
Precipitation 0.00 in - - ()
Sea Level Pressure  
Sea Level Pressure 30.18 in    
Wind  
Wind Speed 0 mph (ESE)    
Max Wind Speed 4 mph    
Max Gust Speed -    
Visibility 10 miles    
Events      
Averages and records for this station are not official NWS values.
T = Trace of Precipitation, MM = Missing Value Source: NWS Daily Summary

Daily Weather History Graph

Daily Weather History Graph

Search for Another Location

Airport:

Trip Planner

Search our weather history database for the weather conditions in past years. The results will help you decide how hot, cold, wet, or windy it might be!

Date:

Astronomy

Sep. 05, 2013 Rise Set
Actual Time 6:42 AM CDT 7:36 PM CDT
Civil Twilight 6:14 AM CDT 8:04 PM CDT
Nautical Twilight 5:41 AM CDT 8:37 PM CDT
Astronomical Twilight 5:07 AM CDT 9:11 PM CDT
Moon 6:55 AM CDT (9/5) 7:28 PM CDT (9/5)
Length of Visible Light 13h 49m
Length of Day
12h 54m
New Moon, 0% of the Moon is Illuminated
Sep 5
New Moon
Sep 12
First Quarter
Sep 19
Full
Sep 26
Last Quarter
Oct 4
New

Hourly Weather History & Observations

Time (CDT) Temp. Heat Index Dew Point Humidity Pressure Visibility Wind Dir Wind Speed Gust Speed Precip Events Conditions
12:15 AM 64.4 °F - 60.8 °F 88% 30.17 in 10.0 mi Calm Calm - N/A   Clear
12:35 AM 66.2 °F - 60.8 °F 83% 30.16 in 10.0 mi Calm Calm - N/A   Clear
12:55 AM 66.2 °F - 62.6 °F 88% 30.16 in 10.0 mi Calm Calm - N/A   Clear
1:15 AM 68.0 °F - 62.6 °F 83% 30.16 in 10.0 mi Calm Calm - N/A   Clear
1:35 AM 66.2 °F - 60.8 °F 83% 30.16 in 10.0 mi Calm Calm - N/A   Clear
1:55 AM 66.2 °F - 60.8 °F 83% 30.16 in 10.0 mi Calm Calm - N/A   Clear
2:15 AM 66.2 °F - 60.8 °F 83% 30.16 in 10.0 mi Calm Calm - N/A   Clear
2:35 AM 64.4 °F - 60.8 °F 88% 30.16 in 10.0 mi Calm Calm - N/A   Clear
2:55 AM 66.2 °F - 60.8 °F 83% 30.16 in 10.0 mi Calm Calm - N/A   Clear
3:15 AM 66.2 °F - 60.8 °F 83% 30.16 in 10.0 mi Calm Calm - N/A   Clear
3:35 AM 66.2 °F - 60.8 °F 83% 30.16 in 10.0 mi Calm Calm - N/A   Clear
3:55 AM 64.4 °F - 60.8 °F 88% 30.16 in 10.0 mi Calm Calm - N/A   Clear
4:15 AM 64.4 °F - 60.8 °F 88% 30.16 in 10.0 mi Calm Calm - N/A   Clear
4:35 AM 62.6 °F - 59.0 °F 88% 30.17 in 10.0 mi Calm Calm - N/A   Clear
4:55 AM 62.6 °F - 59.0 °F 88% 30.17 in 10.0 mi Calm Calm - N/A   Clear
5:15 AM 59.0 °F - 59.0 °F 100% 30.17 in 10.0 mi Calm Calm - N/A   Clear
5:35 AM 62.6 °F - 59.0 °F 88% 30.18 in 10.0 mi Calm Calm - N/A   Clear
5:55 AM 62.6 °F - 60.8 °F 94% 30.17 in 10.0 mi Calm Calm - N/A   Clear
6:15 AM 64.4 °F - 60.8 °F 88% 30.18 in 10.0 mi Calm Calm - N/A   Clear
6:35 AM 62.6 °F - 60.8 °F 94% 30.18 in 10.0 mi Calm Calm - N/A   Clear
6:55 AM 62.6 °F - 60.8 °F 94% 30.19 in 10.0 mi Calm Calm - N/A   Clear
7:15 AM 64.4 °F - 62.6 °F 94% 30.20 in 10.0 mi Calm Calm - N/A   Clear
7:35 AM 68.0 °F - 62.6 °F 83% 30.20 in 10.0 mi Calm Calm - N/A   Clear
7:55 AM 68.0 °F - 62.6 °F 83% 30.20 in 10.0 mi Calm Calm - N/A   Clear
8:15 AM 71.6 °F - 62.6 °F 73% 30.21 in 10.0 mi Calm Calm - N/A   Clear
8:35 AM 69.8 °F - 62.6 °F 78% 30.21 in 10.0 mi Calm Calm - N/A   Clear
8:55 AM 71.6 °F - 62.6 °F 73% 30.21 in 10.0 mi Calm Calm - N/A   Clear
9:15 AM 73.4 °F - 64.4 °F 73% 30.22 in 10.0 mi Calm Calm - N/A   Clear
9:35 AM 75.2 °F - 62.6 °F 65% 30.22 in 10.0 mi Calm Calm - N/A   Clear
9:55 AM 78.8 °F - 62.6 °F 57% 30.23 in 10.0 mi Calm Calm - N/A   Clear
10:15 AM 80.6 °F 81.8 °F 62.6 °F 54% 30.23 in 10.0 mi Calm Calm - N/A   Clear
10:35 AM 82.4 °F 83.4 °F 62.6 °F 51% 30.23 in 10.0 mi Calm Calm - N/A   Clear
10:55 AM 84.2 °F 85.0 °F 62.6 °F 48% 30.23 in 10.0 mi Calm Calm - N/A   Clear
11:15 AM 84.2 °F 85.0 °F 62.6 °F 48% 30.22 in 10.0 mi Calm Calm - N/A   Clear
11:35 AM 86.0 °F 86.1 °F 60.8 °F 43% 30.22 in 10.0 mi Calm Calm - N/A   Clear
11:55 AM 86.0 °F 85.4 °F 59.0 °F 40% 30.22 in 10.0 mi Calm Calm - N/A   Clear
12:15 PM 86.0 °F 85.4 °F 59.0 °F 40% 30.21 in 10.0 mi Calm Calm - N/A   Clear
12:35 PM 86.0 °F 85.4 °F 59.0 °F 40% 30.21 in 10.0 mi Calm Calm - N/A   Clear
12:55 PM 87.8 °F 87.6 °F 60.8 °F 40% 30.20 in 10.0 mi Calm Calm - N/A   Clear
1:15 PM 86.0 °F 86.1 °F 60.8 °F 43% 30.20 in 10.0 mi Calm Calm - N/A   Clear
1:35 PM 86.0 °F 86.6 °F 62.6 °F 45% 30.19 in 10.0 mi Calm Calm - N/A   Clear
1:55 PM 86.0 °F 86.1 °F 60.8 °F 43% 30.19 in 10.0 mi Calm Calm - N/A   Clear
2:15 PM 86.0 °F 86.1 °F 60.8 °F 43% 30.18 in 10.0 mi Calm Calm - N/A   Clear
2:35 PM 86.0 °F 86.1 °F 60.8 °F 43% 30.17 in 10.0 mi Calm Calm - N/A   Clear
2:55 PM 87.8 °F 87.6 °F 60.8 °F 40% 30.18 in 10.0 mi Calm Calm - N/A   Clear
3:15 PM 87.8 °F 87.6 °F 60.8 °F 40% 30.17 in 10.0 mi Calm Calm - N/A   Clear
3:35 PM 87.8 °F 87.6 °F 60.8 °F 40% 30.17 in 10.0 mi ESE 3.5 mph - N/A   Clear
3:55 PM 86.0 °F 86.6 °F 62.6 °F 45% 30.17 in 10.0 mi Calm Calm - N/A   Clear
4:15 PM 86.0 °F 86.6 °F 62.6 °F 45% 30.16 in 10.0 mi Calm Calm - N/A   Clear
4:35 PM 86.0 °F 86.1 °F 60.8 °F 43% 30.16 in 10.0 mi Calm Calm - N/A   Clear
4:55 PM 87.8 °F 88.5 °F 62.6 °F 43% 30.16 in 10.0 mi Calm Calm - N/A   Clear
5:15 PM 86.0 °F 86.6 °F 62.6 °F 45% 30.15 in 10.0 mi Calm Calm - N/A   Clear
5:35 PM 86.0 °F 86.6 °F 62.6 °F 45% 30.16 in 10.0 mi Calm Calm - N/A   Clear
5:55 PM 84.2 °F 85.0 °F 62.6 °F 48% 30.15 in 10.0 mi Calm Calm - N/A   Clear
6:15 PM 86.0 °F 86.6 °F 62.6 °F 45% 30.15 in 10.0 mi Calm Calm - N/A   Clear
6:35 PM 86.0 °F 86.6 °F 62.6 °F 45% 30.15 in 10.0 mi Calm Calm - N/A   Clear
6:55 PM 82.4 °F 83.9 °F 64.4 °F 54% 30.15 in 10.0 mi Calm Calm - N/A   Clear
7:15 PM 78.8 °F - 64.4 °F 61% 30.15 in 10.0 mi Calm Calm - N/A   Clear
7:35 PM 75.2 °F - 64.4 °F 69% 30.15 in 10.0 mi Calm Calm - N/A   Clear
7:55 PM 73.4 °F - 62.6 °F 69% 30.15 in 10.0 mi Calm Calm - N/A   Clear
8:15 PM 73.4 °F - 64.4 °F 73% 30.15 in 10.0 mi Calm Calm - N/A   Clear
8:35 PM 73.4 °F - 64.4 °F 73% 30.15 in 10.0 mi Calm Calm - N/A   Clear
8:55 PM 73.4 °F - 62.6 °F 69% 30.16 in 10.0 mi Calm Calm - N/A   Clear
9:15 PM 73.4 °F - 62.6 °F 69% 30.16 in 10.0 mi Calm Calm - N/A   Clear
9:35 PM 68.0 °F - 62.6 °F 83% 30.16 in 10.0 mi Calm Calm - N/A   Clear
9:55 PM 68.0 °F - 62.6 °F 83% 30.17 in 10.0 mi Calm Calm - N/A   Clear
10:15 PM 66.2 °F - 62.6 °F 88% 30.17 in 10.0 mi Calm Calm - N/A   Clear
10:35 PM 66.2 °F - 62.6 °F 88% 30.17 in 10.0 mi Calm Calm - N/A   Clear
10:55 PM 66.2 °F - 62.6 °F 88% 30.17 in 10.0 mi Calm Calm - N/A   Clear
11:15 PM 64.4 °F - 62.6 °F 94% 30.17 in 10.0 mi Calm Calm - N/A   Clear
11:35 PM 64.4 °F - 62.6 °F 94% 30.17 in 10.0 mi Calm Calm - N/A   Clear
11:55 PM 64.4 °F - 62.6 °F 94% 30.17 in 10.0 mi Calm Calm - N/A   Clear